Weather History for KCKI - December, 2013

Change the Weather History Date:

Thursday, December 19, 2013

  Actual Average Record
Temperature  
Mean Temperature 47 °F -  
Max Temperature 64 °F 56 °F 69 °F (2012)
Min Temperature 30 °F 27 °F 28 °F (2010)
Degree Days  
Heating Degree Days 18    
Moisture  
Dew Point 36 °F    
Average Humidity 76    
Maximum Humidity 100    
Minimum Humidity 32    
Precipitation  
Precipitation 0.00 in - - ()
Sea Level Pressure  
Sea Level Pressure 30.32 in    
Wind  
Wind Speed 1 mph (South)    
Max Wind Speed 9 mph    
Max Gust Speed -    
Visibility 10 miles    
Events      
Averages and records for this station are not official NWS values.
T = Trace of Precipitation, MM = Missing Value Source: NWS Daily Summary

Daily Weather History Graph

Daily Weather History Graph

Search for Another Location

Airport or City:

Trip Planner

Search our weather history database for the weather conditions in past years. The results will help you decide how hot, cold, wet, or windy it might be!

Date:

Astronomy

Dec. 19, 2013 Rise Set
Actual Time 7:19 AM EST 5:14 PM EST
Civil Twilight 6:51 AM EST 5:41 PM EST
Nautical Twilight 6:20 AM EST 6:13 PM EST
Astronomical Twilight 5:49 AM EST 6:43 PM EST
Moon 7:32 PM EST (12/19) 8:42 AM EST (12/19)
Length of Visible Light 10h 50m
Length of Day
9h 54m
Waning Gibbous, 95% of the Moon is Illuminated
Dec 19
Waning Gibbous
Dec 25
Last Quarter
Jan 1
New
Jan 7
First Quarter
Jan 15
Full

Hourly Weather History & Observations

Time (EST) Temp. Windchill Dew Point Humidity Pressure Visibility Wind Dir Wind Speed Gust Speed Precip Events Conditions
12:15 AM 32.0 °F - 32.0 °F 100% 30.32 in 10.0 mi Calm Calm - N/A   Clear
12:35 AM 32.0 °F - 32.0 °F 100% 30.32 in 10.0 mi Calm Calm - N/A   Clear
12:55 AM 32.0 °F - 32.0 °F 100% 30.32 in 10.0 mi Calm Calm - N/A   Clear
1:15 AM 32.0 °F - 32.0 °F 100% 30.32 in 10.0 mi Calm Calm - N/A   Clear
1:35 AM 32.0 °F - 32.0 °F 100% 30.32 in 10.0 mi Calm Calm - N/A   Clear
1:55 AM 32.0 °F - 32.0 °F 100% 30.32 in 10.0 mi Calm Calm - N/A   Clear
2:15 AM 32.0 °F - 32.0 °F 100% 30.33 in 10.0 mi Calm Calm - N/A   Clear
2:35 AM 32.0 °F - 32.0 °F 100% 30.33 in 10.0 mi Calm Calm - N/A   Clear
2:55 AM 32.0 °F - 32.0 °F 100% 30.33 in 10.0 mi Calm Calm - N/A   Clear
3:15 AM 32.0 °F - 32.0 °F 100% 30.34 in 10.0 mi Calm Calm - N/A   Clear
3:35 AM 32.0 °F - 32.0 °F 100% 30.35 in 10.0 mi Calm Calm - N/A   Clear
3:55 AM 32.0 °F - 32.0 °F 100% 30.34 in 10.0 mi Calm Calm - N/A   Clear
4:15 AM 32.0 °F - 32.0 °F 100% 30.34 in 10.0 mi Calm Calm - N/A   Clear
4:35 AM 32.0 °F - 32.0 °F 100% 30.34 in 10.0 mi Calm Calm - N/A   Clear
4:55 AM 32.0 °F - 32.0 °F 100% 30.34 in 10.0 mi Calm Calm - N/A   Clear
5:15 AM 32.0 °F - 32.0 °F 100% 30.34 in 10.0 mi Calm Calm - N/A   Clear
5:35 AM 32.0 °F - 32.0 °F 100% 30.35 in 10.0 mi Calm Calm - N/A   Clear
5:55 AM 32.0 °F - 30.2 °F 93% 30.35 in 10.0 mi Calm Calm - N/A   Clear
6:15 AM 32.0 °F - 30.2 °F 93% 30.35 in 10.0 mi Calm Calm - N/A   Clear
6:35 AM 32.0 °F - 30.2 °F 93% 30.35 in 10.0 mi Calm Calm - N/A   Clear
6:55 AM 32.0 °F - 30.2 °F 93% 30.35 in 10.0 mi Calm Calm - N/A   Clear
7:15 AM 30.2 °F - 30.2 °F 100% 30.35 in 10.0 mi Calm Calm - N/A   Clear
7:35 AM 32.0 °F - 30.2 °F 93% 30.35 in 10.0 mi Calm Calm - N/A   Clear
7:55 AM 32.0 °F - 32.0 °F 100% 30.35 in 10.0 mi Calm Calm - N/A   Clear
8:15 AM 32.0 °F - 32.0 °F 100% 30.36 in 10.0 mi Calm Calm - N/A   Clear
8:35 AM 33.8 °F - 33.8 °F 100% 30.36 in 10.0 mi Calm Calm - N/A   Clear
8:55 AM 37.4 °F - 37.4 °F 100% 30.37 in 10.0 mi Calm Calm - N/A   Clear
9:15 AM 41.0 °F - 37.4 °F 87% 30.37 in 10.0 mi Calm Calm - N/A   Clear
9:35 AM 44.6 °F - 41.0 °F 87% 30.38 in 10.0 mi Calm Calm - N/A   Clear
9:55 AM 50.0 °F - 39.2 °F 66% 30.37 in 10.0 mi Calm Calm - N/A   Clear
10:15 AM 53.6 °F - 32.0 °F 44% 30.38 in 10.0 mi SSE 3.5 mph - N/A   Clear
10:35 AM 55.4 °F - 32.0 °F 41% 30.38 in 10.0 mi Calm Calm - N/A   Clear
10:55 AM 57.2 °F - 32.0 °F 38% 30.38 in 10.0 mi Calm Calm - N/A   Clear
11:15 AM 59.0 °F - 30.2 °F 34% 30.37 in 10.0 mi South 3.5 mph - N/A   Clear
11:35 AM 60.8 °F - 32.0 °F 34% 30.37 in 10.0 mi South 5.8 mph - N/A   Clear
11:55 AM 60.8 °F - 32.0 °F 34% 30.36 in 10.0 mi South 6.9 mph - N/A   Clear
12:15 PM 60.8 °F - 32.0 °F 34% 30.35 in 10.0 mi South 3.5 mph - N/A   Clear
12:35 PM 62.6 °F - 32.0 °F 32% 30.34 in 10.0 mi South 4.6 mph - N/A   Clear
12:55 PM 62.6 °F - 32.0 °F 32% 30.32 in 10.0 mi South 9.2 mph - N/A   Clear
1:15 PM 62.6 °F - 33.8 °F 34% 30.31 in 10.0 mi SSE 3.5 mph - N/A   Clear
1:35 PM 64.4 °F - 35.6 °F 34% 30.30 in 10.0 mi South 6.9 mph - N/A   Clear
1:55 PM 64.4 °F - 35.6 °F 34% 30.30 in 10.0 mi SSW 6.9 mph - N/A   Clear
2:15 PM 64.4 °F - 35.6 °F 34% 30.29 in 10.0 mi SSW 6.9 mph - N/A   Clear
2:35 PM 64.4 °F - 37.4 °F 37% 30.28 in 10.0 mi South 4.6 mph - N/A   Clear
2:55 PM 64.4 °F - 37.4 °F 37% 30.28 in 10.0 mi South 5.8 mph - N/A   Clear
3:15 PM 64.4 °F - 37.4 °F 37% 30.28 in 10.0 mi South 4.6 mph - N/A   Clear
3:35 PM 64.4 °F - 35.6 °F 34% 30.27 in 10.0 mi South 5.8 mph - N/A   Clear
3:55 PM 64.4 °F - 37.4 °F 37% 30.27 in 10.0 mi SSE 4.6 mph - N/A   Clear
4:15 PM 62.6 °F - 37.4 °F 39% 30.27 in 10.0 mi Calm Calm - N/A   Clear
4:35 PM 62.6 °F - 41.0 °F 45% 30.28 in 10.0 mi Calm Calm - N/A   Clear
4:55 PM 59.0 °F - 42.8 °F 55% 30.28 in 10.0 mi Calm Calm - N/A   Clear
5:15 PM 55.4 °F - 44.6 °F 67% 30.28 in 10.0 mi Calm Calm - N/A   Clear
5:35 PM 53.6 °F - 44.6 °F 72% 30.28 in 10.0 mi Calm Calm - N/A   Clear
5:55 PM 51.8 °F - 44.6 °F 76% 30.28 in 10.0 mi Calm Calm - N/A   Clear
6:15 PM 51.8 °F - 44.6 °F 76% 30.27 in 10.0 mi Calm Calm - N/A   Clear
6:35 PM 51.8 °F - 44.6 °F 76% 30.28 in 10.0 mi Calm Calm - N/A   Clear
6:55 PM 50.0 °F - 44.6 °F 82% 30.29 in 10.0 mi Calm Calm - N/A   Clear
7:15 PM 48.2 °F - 42.8 °F 82% 30.29 in 10.0 mi Calm Calm - N/A   Clear
7:35 PM 48.2 °F - 42.8 °F 82% 30.29 in 10.0 mi Calm Calm - N/A   Clear
7:55 PM 46.4 °F - 42.8 °F 87% 30.30 in 10.0 mi Calm Calm - N/A   Clear
8:15 PM 46.4 °F - 42.8 °F 87% 30.30 in 10.0 mi Calm Calm - N/A   Clear
8:35 PM 44.6 °F 43.1 °F 42.8 °F 93% 30.30 in 10.0 mi ESE 3.5 mph - N/A   Clear
8:55 PM 44.6 °F - 42.8 °F 93% 30.30 in 10.0 mi Calm Calm - N/A   Clear
9:15 PM 44.6 °F - 42.8 °F 93% 30.30 in 10.0 mi Calm Calm - N/A   Clear
9:35 PM 44.6 °F - 41.0 °F 87% 30.29 in 10.0 mi Calm Calm - N/A   Clear
9:55 PM 42.8 °F - 41.0 °F 93% 30.29 in 10.0 mi Calm Calm - N/A   Clear
10:15 PM 42.8 °F - 41.0 °F 93% 30.28 in 10.0 mi Calm Calm - N/A   Clear
10:35 PM 42.8 °F - 41.0 °F 93% 30.28 in 10.0 mi Calm Calm - N/A   Clear
10:55 PM 42.8 °F - 42.8 °F 100% 30.28 in 10.0 mi Calm Calm - N/A   Clear
11:15 PM 42.8 °F - 41.0 °F 93% 30.27 in 10.0 mi Calm Calm - N/A   Scattered Clouds
11:35 PM 42.8 °F - 41.0 °F 93% 30.27 in 10.0 mi Calm Calm - N/A   Scattered Clouds
11:55 PM 42.8 °F - 41.0 °F 93% 30.26 in 10.0 mi Calm Calm - N/A   Clear